{"data":{"norad_id":62889,"epoch":"2026-09-21T21:03:44.367840Z","epoch_age_seconds":49110,"freshness":"FRESH","line1":"1 62889U 25024L   26264.87759685  .00124430  00000+0  95489-3 0  9992","line2":"2 62889  42.9986  78.7226 0002199 263.7928  96.2689 15.70935338 94325","mean_motion":15.70935338,"eccentricity":0.0002199,"inclination_deg":42.9986,"raan_deg":78.7226,"arg_perigee_deg":263.7928,"mean_anomaly_deg":96.2689,"bstar":0.00095489,"rev_number":9432,"period_min":91.665135105644,"perigee_km":354.74169583095,"apogee_km":357.7034671749,"semimajor_km":6734.3595815029,"source":"CELESTRAK","updated_at":"2026-09-22T09:00:49.703975Z"}}